Wetterdaten: Montag, 19.10.2015
Datum Zeit Temp. A. Feuchte A. Luftdruck Regen Wind Richtung Richtung Sonnenschein ET UV Solar Taupunkt Windchill Windben Empfang
19.10.2015 00:00 6,7 C 97 % 1017,9 hPa 0,0 l/m 0,0 km/h (0 Bft) O-SO 116 0 min 0,000 mm 0,0 UV-I 0 W/m 6,3 C 6,7 C 0,0 km/h (0 Bft) 99,17 %
19.10.2015 00:05 6,7 C 97 % 1017,9 hPa 0,0 l/m 0,0 km/h (0 Bft) O-SO 116 0 min 0,000 mm 0,0 UV-I 0 W/m 6,3 C 6,7 C 0,0 km/h (0 Bft) 99,13 %
19.10.2015 00:10 6,7 C 97 % 1017,9 hPa 0,0 l/m 0,0 km/h (0 Bft) O-SO 116 0 min 0,000 mm 0,0 UV-I 0 W/m 6,3 C 6,7 C 0,0 km/h (0 Bft) 100,00 %
19.10.2015 00:15 6,7 C 97 % 1017,9 hPa 0,0 l/m 0,0 km/h (0 Bft) O-SO 116 0 min 0,000 mm 0,0 UV-I 0 W/m 6,3 C 6,7 C 0,0 km/h (0 Bft) 100,00 %
19.10.2015 00:20 6,6 C 97 % 1017,8 hPa 0,0 l/m 0,0 km/h (0 Bft) O-SO 116 0 min 0,000 mm 0,0 UV-I 0 W/m 6,2 C 6,6 C 0,0 km/h (0 Bft) 100,00 %
19.10.2015 00:25 6,6 C 97 % 1017,8 hPa 0,0 l/m 0,0 km/h (0 Bft) O-SO 116 0 min 0,000 mm 0,0 UV-I 0 W/m 6,2 C 6,6 C 0,0 km/h (0 Bft) 100,00 %
19.10.2015 00:30 6,6 C 97 % 1017,7 hPa 0,0 l/m 0,0 km/h (0 Bft) O-SO 116 0 min 0,000 mm 0,0 UV-I 0 W/m 6,2 C 6,6 C 0,0 km/h (0 Bft) 100,00 %
19.10.2015 00:35 6,6 C 97 % 1017,7 hPa 0,0 l/m 0,0 km/h (0 Bft) O-SO 116 0 min 0,000 mm 0,0 UV-I 0 W/m 6,2 C 6,6 C 0,0 km/h (0 Bft) 100,00 %
19.10.2015 00:40 6,6 C 97 % 1017,7 hPa 0,0 l/m 0,0 km/h (0 Bft) O-SO 116 0 min 0,000 mm 0,0 UV-I 0 W/m 6,2 C 6,6 C 0,0 km/h (0 Bft) 100,00 %
19.10.2015 00:45 6,6 C 97 % 1017,7 hPa 0,0 l/m 0,0 km/h (0 Bft) O-SO 116 0 min 0,000 mm 0,0 UV-I 0 W/m 6,2 C 6,6 C 0,0 km/h (0 Bft) 100,00 %
19.10.2015 00:50 6,4 C 97 % 1017,6 hPa 0,0 l/m 0,0 km/h (0 Bft) O-SO 116 0 min 0,000 mm 0,0 UV-I 0 W/m 6,0 C 6,4 C 0,0 km/h (0 Bft) 100,00 %
19.10.2015 00:55 6,4 C 97 % 1017,6 hPa 0,0 l/m 0,0 km/h (0 Bft) O-SO 116 0 min 0,000 mm 0,0 UV-I 0 W/m 6,0 C 6,4 C 0,0 km/h (0 Bft) 100,00 %
19.10.2015 01:00 6,4 C 97 % 1017,5 hPa 0,0 l/m 0,0 km/h (0 Bft) O-SO 116 0 min 0,000 mm 0,0 UV-I 0 W/m 6,0 C 6,4 C 0,0 km/h (0 Bft) 100,00 %
19.10.2015 01:05 6,4 C 97 % 1017,5 hPa 0,0 l/m 0,1 km/h (0 Bft) O-SO 116 0 min 0,000 mm 0,0 UV-I 0 W/m 6,0 C 6,4 C 1,6 km/h (1 Bft) 99,15 %
19.10.2015 01:10 6,3 C 97 % 1017,6 hPa 0,0 l/m 0,4 km/h (0 Bft) O-SO 116 0 min 0,000 mm 0,0 UV-I 0 W/m 5,9 C 6,3 C 1,6 km/h (1 Bft) 99,21 %
19.10.2015 01:15 6,2 C 97 % 1017,6 hPa 0,0 l/m 0,7 km/h (0 Bft) O-SO 116 0 min 0,000 mm 0,0 UV-I 0 W/m 5,8 C 6,2 C 1,6 km/h (1 Bft) 100,00 %
19.10.2015 01:20 6,1 C 97 % 1017,5 hPa 0,0 l/m 0,2 km/h (0 Bft) O-SO 116 0 min 0,000 mm 0,0 UV-I 0 W/m 5,7 C 6,1 C 1,6 km/h (1 Bft) 98,33 %
19.10.2015 01:25 6,1 C 97 % 1017,6 hPa 0,0 l/m 0,0 km/h (0 Bft) O-SO 116 0 min 0,000 mm 0,0 UV-I 0 W/m 5,7 C 6,1 C 0,0 km/h (0 Bft) 100,00 %
19.10.2015 01:30 5,9 C 97 % 1017,5 hPa 0,0 l/m 0,7 km/h (0 Bft) O-SO 116 0 min 0,000 mm 0,0 UV-I 0 W/m 5,5 C 5,9 C 1,6 km/h (1 Bft) 100,00 %
19.10.2015 01:35 5,8 C 97 % 1017,5 hPa 0,0 l/m 0,1 km/h (0 Bft) O-SO 116 0 min 0,000 mm 0,0 UV-I 0 W/m 5,4 C 5,8 C 1,6 km/h (1 Bft) 99,17 %
19.10.2015 01:40 5,7 C 97 % 1017,5 hPa 0,0 l/m 0,0 km/h (0 Bft) O-SO 116 0 min 0,000 mm 0,0 UV-I 0 W/m 5,3 C 5,7 C 0,0 km/h (0 Bft) 100,00 %
19.10.2015 01:45 5,7 C 97 % 1017,5 hPa 0,0 l/m 0,0 km/h (0 Bft) O-SO 116 0 min 0,000 mm 0,0 UV-I 0 W/m 5,3 C 5,7 C 0,0 km/h (0 Bft) 99,17 %
19.10.2015 01:50 5,7 C 97 % 1017,6 hPa 0,0 l/m 0,0 km/h (0 Bft) O-SO 116 0 min 0,000 mm 0,0 UV-I 0 W/m 5,3 C 5,7 C 0,0 km/h (0 Bft) 99,15 %
19.10.2015 01:55 5,7 C 97 % 1017,5 hPa 0,0 l/m 0,0 km/h (0 Bft) O-SO 116 0 min 0,000 mm 0,0 UV-I 0 W/m 5,3 C 5,7 C 0,0 km/h (0 Bft) 100,00 %
19.10.2015 02:00 5,8 C 97 % 1017,5 hPa 0,0 l/m 0,0 km/h (0 Bft) O-SO 116 0 min 0,000 mm 0,0 UV-I 0 W/m 5,4 C 5,8 C 0,0 km/h (0 Bft) 99,19 %
19.10.2015 02:05 5,8 C 97 % 1017,5 hPa 0,0 l/m 0,0 km/h (0 Bft) O-SO 116 0 min 0,000 mm 0,0 UV-I 0 W/m 5,4 C 5,8 C 0,0 km/h (0 Bft) 98,20 %
19.10.2015 02:10 5,8 C 97 % 1017,5 hPa 0,0 l/m 0,0 km/h (0 Bft) O-SO 116 0 min 0,000 mm 0,0 UV-I 0 W/m 5,4 C 5,8 C 1,6 km/h (1 Bft) 100,00 %
19.10.2015 02:15 5,9 C 97 % 1017,4 hPa 0,0 l/m 0,1 km/h (0 Bft) O-SO 116 0 min 0,000 mm 0,0 UV-I 0 W/m 5,5 C 5,9 C 1,6 km/h (1 Bft) 99,11 %
19.10.2015 02:20 5,8 C 97 % 1017,4 hPa 0,2 l/m 0,0 km/h (0 Bft) O-SO 116 0 min 0,000 mm 0,0 UV-I 0 W/m 5,4 C 5,8 C 0,0 km/h (0 Bft) 99,19 %
19.10.2015 02:25 5,9 C 97 % 1017,5 hPa 0,0 l/m 0,1 km/h (0 Bft) O-SO 116 0 min 0,000 mm 0,0 UV-I 0 W/m 5,5 C 5,9 C 1,6 km/h (1 Bft) 98,17 %
19.10.2015 02:30 5,9 C 97 % 1017,5 hPa 0,0 l/m 0,0 km/h (0 Bft) O-SO 116 0 min 0,000 mm 0,0 UV-I 0 W/m 5,5 C 5,9 C 0,0 km/h (0 Bft) 99,17 %
19.10.2015 02:35 5,9 C 97 % 1017,4 hPa 0,0 l/m 0,0 km/h (0 Bft) O-SO 116 0 min 0,000 mm 0,0 UV-I 0 W/m 5,5 C 5,9 C 0,0 km/h (0 Bft) 100,00 %
19.10.2015 02:40 5,9 C 97 % 1017,3 hPa 0,0 l/m 0,1 km/h (0 Bft) O-SO 116 0 min 0,000 mm 0,0 UV-I 0 W/m 5,5 C 5,9 C 1,6 km/h (1 Bft) 99,11 %
19.10.2015 02:45 5,9 C 98 % 1017,4 hPa 0,0 l/m 0,0 km/h (0 Bft) O-SO 116 0 min 0,000 mm 0,0 UV-I 0 W/m 5,6 C 5,9 C 0,0 km/h (0 Bft) 100,00 %
19.10.2015 02:50 6,0 C 98 % 1017,4 hPa 0,0 l/m 0,0 km/h (0 Bft) O-SO 116 0 min 0,000 mm 0,0 UV-I 0 W/m 5,7 C 6,0 C 0,0 km/h (0 Bft) 98,35 %
19.10.2015 02:55 6,1 C 98 % 1017,6 hPa 0,0 l/m 0,0 km/h (0 Bft) O-SO 116 0 min 0,000 mm 0,0 UV-I 0 W/m 5,8 C 6,1 C 1,6 km/h (1 Bft) 100,00 %
19.10.2015 03:00 6,1 C 98 % 1017,6 hPa 0,0 l/m 0,0 km/h (0 Bft) O-SO 116 0 min 0,000 mm 0,0 UV-I 0 W/m 5,8 C 6,1 C 0,0 km/h (0 Bft) 100,00 %
19.10.2015 03:05 6,2 C 97 % 1017,5 hPa 0,0 l/m 0,0 km/h (0 Bft) O-SO 116 0 min 0,000 mm 0,0 UV-I 0 W/m 5,8 C 6,2 C 0,0 km/h (0 Bft) 100,00 %
19.10.2015 03:10 6,1 C 97 % 1017,6 hPa 0,0 l/m 0,0 km/h (0 Bft) O-SO 116 0 min 0,000 mm 0,0 UV-I 0 W/m 5,7 C 6,1 C 1,6 km/h (1 Bft) 99,15 %
19.10.2015 03:15 6,1 C 97 % 1017,6 hPa 0,0 l/m 0,0 km/h (0 Bft) O-SO 115 0 min 0,000 mm 0,0 UV-I 0 W/m 5,7 C 6,1 C 0,0 km/h (0 Bft) 99,17 %
19.10.2015 03:20 6,0 C 98 % 1017,6 hPa 0,0 l/m 0,0 km/h (0 Bft) O-SO 115 0 min 0,000 mm 0,0 UV-I 0 W/m 5,7 C 6,0 C 0,0 km/h (0 Bft) 98,35 %
19.10.2015 03:25 6,0 C 98 % 1017,6 hPa 0,0 l/m 0,0 km/h (0 Bft) O-SO 115 0 min 0,000 mm 0,0 UV-I 0 W/m 5,7 C 6,0 C 1,6 km/h (1 Bft) 96,30 %
19.10.2015 03:30 6,1 C 98 % 1017,6 hPa 0,0 l/m 0,0 km/h (0 Bft) O-SO 115 0 min 0,000 mm 0,0 UV-I 0 W/m 5,8 C 6,1 C 0,0 km/h (0 Bft) 99,21 %
19.10.2015 03:35 6,1 C 98 % 1017,7 hPa 0,0 l/m 0,0 km/h (0 Bft) O-SO 115 0 min 0,000 mm 0,0 UV-I 0 W/m 5,8 C 6,1 C 0,0 km/h (0 Bft) 99,15 %
19.10.2015 03:40 6,1 C 98 % 1017,6 hPa 0,0 l/m 0,0 km/h (0 Bft) O-SO 115 0 min 0,000 mm 0,0 UV-I 0 W/m 5,8 C 6,1 C 0,0 km/h (0 Bft) 100,00 %
19.10.2015 03:45 6,1 C 98 % 1017,4 hPa 0,0 l/m 0,1 km/h (0 Bft) O-SO 115 0 min 0,000 mm 0,0 UV-I 0 W/m 5,8 C 6,1 C 1,6 km/h (1 Bft) 99,17 %
19.10.2015 03:50 6,2 C 98 % 1017,5 hPa 0,0 l/m 0,0 km/h (0 Bft) O-SO 115 0 min 0,000 mm 0,0 UV-I 0 W/m 5,9 C 6,2 C 1,6 km/h (1 Bft) 100,00 %
19.10.2015 03:55 6,2 C 98 % 1017,4 hPa 0,0 l/m 0,1 km/h (0 Bft) O-SO 115 0 min 0,000 mm 0,0 UV-I 0 W/m 5,9 C 6,2 C 1,6 km/h (1 Bft) 100,00 %
19.10.2015 04:00 6,2 C 97 % 1017,3 hPa 0,0 l/m 0,0 km/h (0 Bft) O-SO 115 0 min 0,000 mm 0,0 UV-I 0 W/m 5,8 C 6,2 C 0,0 km/h (0 Bft) 99,17 %
19.10.2015 04:05 6,2 C 97 % 1017,4 hPa 0,0 l/m 0,0 km/h (0 Bft) O-SO 115 0 min 0,000 mm 0,0 UV-I 0 W/m 5,8 C 6,2 C 0,0 km/h (0 Bft) 97,40 %
19.10.2015 04:10 6,1 C 97 % 1017,4 hPa 0,0 l/m 0,0 km/h (0 Bft) O-SO 115 0 min 0,000 mm 0,0 UV-I 0 W/m 5,7 C 6,1 C 0,0 km/h (0 Bft) 98,39 %
19.10.2015 04:15 6,2 C 97 % 1017,4 hPa 0,0 l/m 0,0 km/h (0 Bft) O-SO 115 0 min 0,000 mm 0,0 UV-I 0 W/m 5,8 C 6,2 C 0,0 km/h (0 Bft) 100,00 %
19.10.2015 04:20 6,2 C 98 % 1017,4 hPa 0,0 l/m 0,0 km/h (0 Bft) O-SO 115 0 min 0,000 mm 0,0 UV-I 0 W/m 5,9 C 6,2 C 0,0 km/h (0 Bft) 98,37 %
19.10.2015 04:25 6,2 C 98 % 1017,4 hPa 0,0 l/m 0,0 km/h (0 Bft) O-SO 115 0 min 0,000 mm 0,0 UV-I 0 W/m 5,9 C 6,2 C 1,6 km/h (1 Bft) 99,15 %
19.10.2015 04:30 6,2 C 98 % 1017,4 hPa 0,0 l/m 0,2 km/h (0 Bft) O-SO 115 0 min 0,000 mm 0,0 UV-I 0 W/m 5,9 C 6,2 C 1,6 km/h (1 Bft) 98,15 %
19.10.2015 04:35 6,2 C 98 % 1017,5 hPa 0,0 l/m 0,1 km/h (0 Bft) O-SO 115 0 min 0,000 mm 0,0 UV-I 0 W/m 5,9 C 6,2 C 1,6 km/h (1 Bft) 100,00 %
19.10.2015 04:40 6,2 C 98 % 1017,4 hPa 0,0 l/m 0,0 km/h (0 Bft) O-SO 115 0 min 0,000 mm 0,0 UV-I 0 W/m 5,9 C 6,2 C 0,0 km/h (0 Bft) 98,43 %
19.10.2015 04:45 6,2 C 97 % 1017,4 hPa 0,0 l/m 0,0 km/h (0 Bft) O-SO 115 0 min 0,000 mm 0,0 UV-I 0 W/m 5,8 C 6,2 C 0,0 km/h (0 Bft) 100,00 %
19.10.2015 04:50 6,2 C 97 % 1017,5 hPa 0,0 l/m 0,0 km/h (0 Bft) O-SO 115 0 min 0,000 mm 0,0 UV-I 0 W/m 5,8 C 6,2 C 0,0 km/h (0 Bft) 98,35 %
19.10.2015 04:55 6,2 C 98 % 1017,5 hPa 0,0 l/m 0,0 km/h (0 Bft) O-SO 115 0 min 0,000 mm 0,0 UV-I 0 W/m 5,9 C 6,2 C 0,0 km/h (0 Bft) 100,00 %
19.10.2015 05:00 6,2 C 97 % 1017,4 hPa 0,0 l/m 0,3 km/h (0 Bft) O-SO 115 0 min 0,000 mm 0,0 UV-I 0 W/m 5,8 C 6,2 C 1,6 km/h (1 Bft) 99,19 %
19.10.2015 05:05 6,2 C 97 % 1017,4 hPa 0,0 l/m 0,5 km/h (0 Bft) O-SO 115 0 min 0,000 mm 0,0 UV-I 0 W/m 5,8 C 6,2 C 1,6 km/h (1 Bft) 98,35 %
19.10.2015 05:10 6,1 C 97 % 1017,3 hPa 0,0 l/m 0,3 km/h (0 Bft) O-SO 115 0 min 0,000 mm 0,0 UV-I 0 W/m 5,7 C 6,1 C 1,6 km/h (1 Bft) 100,00 %
19.10.2015 05:15 6,1 C 97 % 1017,2 hPa 0,0 l/m 0,0 km/h (0 Bft) O-SO 116 0 min 0,000 mm 0,0 UV-I 0 W/m 5,7 C 6,1 C 0,0 km/h (0 Bft) 100,00 %
19.10.2015 05:20 6,1 C 98 % 1017,3 hPa 0,0 l/m 0,0 km/h (0 Bft) O-SO 115 0 min 0,000 mm 0,0 UV-I 0 W/m 5,8 C 6,1 C 1,6 km/h (1 Bft) 100,00 %
19.10.2015 05:25 6,1 C 98 % 1017,4 hPa 0,0 l/m 0,2 km/h (0 Bft) O-SO 116 0 min 0,000 mm 0,0 UV-I 0 W/m 5,8 C 6,1 C 1,6 km/h (1 Bft) 98,37 %
19.10.2015 05:30 6,1 C 98 % 1017,4 hPa 0,0 l/m 0,0 km/h (0 Bft) O-SO 116 0 min 0,000 mm 0,0 UV-I 0 W/m 5,8 C 6,1 C 0,0 km/h (0 Bft) 99,08 %
19.10.2015 05:35 6,2 C 98 % 1017,4 hPa 0,0 l/m 0,3 km/h (0 Bft) O-SO 116 0 min 0,000 mm 0,0 UV-I 0 W/m 5,9 C 6,2 C 1,6 km/h (1 Bft) 100,00 %
19.10.2015 05:40 6,1 C 98 % 1017,4 hPa 0,0 l/m 0,3 km/h (0 Bft) O-SO 111 0 min 0,000 mm 0,0 UV-I 0 W/m 5,8 C 6,1 C 1,6 km/h (1 Bft) 99,19 %
19.10.2015 05:45 6,1 C 98 % 1017,5 hPa 0,0 l/m 0,0 km/h (0 Bft) O-SO 111 0 min 0,000 mm 0,0 UV-I 0 W/m 5,8 C 6,1 C 0,0 km/h (0 Bft) 99,15 %
19.10.2015 05:50 6,2 C 98 % 1017,5 hPa 0,0 l/m 0,0 km/h (0 Bft) O-SO 111 0 min 0,000 mm 0,0 UV-I 0 W/m 5,9 C 6,2 C 0,0 km/h (0 Bft) 100,00 %
19.10.2015 05:55 6,2 C 98 % 1017,5 hPa 0,0 l/m 0,0 km/h (0 Bft) O-SO 111 0 min 0,000 mm 0,0 UV-I 0 W/m 5,9 C 6,2 C 1,6 km/h (1 Bft) 99,17 %
19.10.2015 06:00 6,2 C 98 % 1017,6 hPa 0,0 l/m 0,0 km/h (0 Bft) O-SO 111 0 min 0,000 mm 0,0 UV-I 0 W/m 5,9 C 6,2 C 1,6 km/h (1 Bft) 99,19 %
19.10.2015 06:05 6,2 C 98 % 1017,6 hPa 0,0 l/m 0,0 km/h (0 Bft) O-SO 111 0 min 0,000 mm 0,0 UV-I 0 W/m 5,9 C 6,2 C 0,0 km/h (0 Bft) 100,00 %
19.10.2015 06:10 6,1 C 98 % 1017,5 hPa 0,0 l/m 0,0 km/h (0 Bft) O-SO 111 0 min 0,000 mm 0,0 UV-I 0 W/m 5,8 C 6,1 C 0,0 km/h (0 Bft) 99,17 %
19.10.2015 06:15 6,2 C 98 % 1017,5 hPa 0,0 l/m 0,1 km/h (0 Bft) O-SO 111 0 min 0,000 mm 0,0 UV-I 0 W/m 5,9 C 6,2 C 1,6 km/h (1 Bft) 99,13 %
19.10.2015 06:20 6,2 C 98 % 1017,5 hPa 0,0 l/m 0,8 km/h (0 Bft) W 267 0 min 0,000 mm 0,0 UV-I 0 W/m 5,9 C 6,2 C 3,2 km/h (1 Bft) 100,00 %
19.10.2015 06:25 6,2 C 98 % 1017,5 hPa 0,0 l/m 0,6 km/h (0 Bft) W 269 0 min 0,000 mm 0,0 UV-I 0 W/m 5,9 C 6,2 C 3,2 km/h (1 Bft) 98,17 %
19.10.2015 06:30 6,2 C 98 % 1017,5 hPa 0,0 l/m 0,8 km/h (0 Bft) W 266 0 min 0,000 mm 0,0 UV-I 0 W/m 5,9 C 6,2 C 3,2 km/h (1 Bft) 100,00 %
19.10.2015 06:35 6,2 C 98 % 1017,6 hPa 0,2 l/m 1,1 km/h (1 Bft) W-SW 247 0 min 0,000 mm 0,0 UV-I 0 W/m 5,9 C 6,2 C 3,2 km/h (1 Bft) 99,17 %
19.10.2015 06:40 6,3 C 98 % 1017,6 hPa 0,2 l/m 0,3 km/h (0 Bft) W-SW 247 0 min 0,000 mm 0,0 UV-I 0 W/m 6,0 C 6,3 C 3,2 km/h (1 Bft) 99,11 %
19.10.2015 06:45 6,3 C 98 % 1017,6 hPa 0,0 l/m 0,9 km/h (0 Bft) W-SW 245 0 min 0,000 mm 0,0 UV-I 0 W/m 6,0 C 6,3 C 3,2 km/h (1 Bft) 99,17 %
19.10.2015 06:50 6,3 C 98 % 1017,7 hPa 0,0 l/m 1,0 km/h (0 Bft) S-SW 207 0 min 0,000 mm 0,0 UV-I 0 W/m 6,0 C 6,3 C 3,2 km/h (1 Bft) 100,00 %
19.10.2015 06:55 6,3 C 98 % 1017,7 hPa 0,2 l/m 1,1 km/h (1 Bft) S-SW 207 0 min 0,000 mm 0,0 UV-I 0 W/m 6,0 C 6,3 C 3,2 km/h (1 Bft) 100,00 %
19.10.2015 07:00 6,3 C 98 % 1017,7 hPa 0,0 l/m 1,7 km/h (1 Bft) SW 221 0 min 0,000 mm 0,0 UV-I 0 W/m 6,0 C 6,3 C 3,2 km/h (1 Bft) 100,00 %
19.10.2015 07:05 6,3 C 98 % 1017,7 hPa 0,0 l/m 0,5 km/h (0 Bft) SW 221 0 min 0,000 mm 0,0 UV-I 0 W/m 6,0 C 6,3 C 3,2 km/h (1 Bft) 100,00 %
19.10.2015 07:10 6,3 C 98 % 1017,5 hPa 0,0 l/m 0,6 km/h (0 Bft) W-SW 242 0 min 0,000 mm 0,0 UV-I 0 W/m 6,0 C 6,3 C 1,6 km/h (1 Bft) 100,00 %
19.10.2015 07:15 6,3 C 98 % 1017,5 hPa 0,2 l/m 0,6 km/h (0 Bft) W-SW 243 0 min 0,000 mm 0,0 UV-I 0 W/m 6,0 C 6,3 C 3,2 km/h (1 Bft) 99,17 %
19.10.2015 07:20 6,3 C 98 % 1017,7 hPa 0,0 l/m 0,1 km/h (0 Bft) W-SW 243 0 min 0,000 mm 0,0 UV-I 0 W/m 6,0 C 6,3 C 1,6 km/h (1 Bft) 99,06 %
19.10.2015 07:25 6,3 C 98 % 1017,7 hPa 0,0 l/m 0,0 km/h (0 Bft) W-SW 245 0 min 0,000 mm 0,0 UV-I 0 W/m 6,0 C 6,3 C 0,0 km/h (0 Bft) 100,00 %
19.10.2015 07:30 6,3 C 97 % 1017,7 hPa 0,0 l/m 0,1 km/h (0 Bft) W-SW 257 0 min 0,000 mm 0,0 UV-I 0 W/m 5,9 C 6,3 C 1,6 km/h (1 Bft) 100,00 %
19.10.2015 07:35 6,3 C 97 % 1017,8 hPa 0,0 l/m 0,0 km/h (0 Bft) W-SW 257 0 min 0,000 mm 0,0 UV-I 0 W/m 5,9 C 6,3 C 1,6 km/h (1 Bft) 99,13 %
19.10.2015 07:40 6,3 C 98 % 1017,8 hPa 0,0 l/m 0,0 km/h (0 Bft) W-SW 257 0 min 0,000 mm 0,0 UV-I 0 W/m 6,0 C 6,3 C 0,0 km/h (0 Bft) 98,33 %
19.10.2015 07:45 6,3 C 98 % 1017,7 hPa 0,0 l/m 0,0 km/h (0 Bft) W-SW 257 0 min 0,000 mm 0,0 UV-I 0 W/m 6,0 C 6,3 C 0,0 km/h (0 Bft) 99,15 %
19.10.2015 07:50 6,3 C 98 % 1017,7 hPa 0,0 l/m 0,0 km/h (0 Bft) W-SW 257 0 min 0,000 mm 0,0 UV-I 0 W/m 6,0 C 6,3 C 0,0 km/h (0 Bft) 100,00 %
19.10.2015 07:55 6,3 C 98 % 1017,8 hPa 0,0 l/m 0,0 km/h (0 Bft) W-SW 257 0 min 0,000 mm 0,0 UV-I 0 W/m 6,0 C 6,3 C 0,0 km/h (0 Bft) 99,17 %
19.10.2015 08:00 6,4 C 98 % 1017,8 hPa 0,0 l/m 0,0 km/h (0 Bft) W-SW 257 0 min 0,000 mm 0,0 UV-I 0 W/m 6,1 C 6,4 C 0,0 km/h (0 Bft) 100,00 %
19.10.2015 08:05 6,4 C 98 % 1017,9 hPa 0,0 l/m 0,0 km/h (0 Bft) W-SW 257 0 min 0,000 mm 0,0 UV-I 2 W/m 6,1 C 6,4 C 1,6 km/h (1 Bft) 100,00 %
19.10.2015 08:10 6,4 C 98 % 1017,9 hPa 0,0 l/m 0,0 km/h (0 Bft) W-SW 257 0 min 0,000 mm 0,0 UV-I 5 W/m 6,1 C 6,4 C 0,0 km/h (0 Bft) 100,00 %
19.10.2015 08:15 6,4 C 98 % 1018,0 hPa 0,0 l/m 0,0 km/h (0 Bft) W-SW 257 0 min 0,000 mm 0,0 UV-I 5 W/m 6,1 C 6,4 C 0,0 km/h (0 Bft) 100,00 %
19.10.2015 08:20 6,4 C 98 % 1018,0 hPa 0,0 l/m 0,1 km/h (0 Bft) W-SW 257 0 min 0,000 mm 0,0 UV-I 8 W/m 6,1 C 6,4 C 1,6 km/h (1 Bft) 100,00 %
19.10.2015 08:25 6,5 C 97 % 1018,1 hPa 0,0 l/m 0,0 km/h (0 Bft) W-SW 257 0 min 0,000 mm 0,0 UV-I 11 W/m 6,1 C 6,5 C 0,0 km/h (0 Bft) 100,00 %
19.10.2015 08:30 6,4 C 97 % 1018,0 hPa 0,0 l/m 0,0 km/h (0 Bft) W-SW 257 0 min 0,000 mm 0,0 UV-I 12 W/m 6,0 C 6,4 C 0,0 km/h (0 Bft) 98,35 %
19.10.2015 08:35 6,5 C 97 % 1018,2 hPa 0,0 l/m 0,0 km/h (0 Bft) W-SW 257 0 min 0,000 mm 0,0 UV-I 14 W/m 6,1 C 6,5 C 1,6 km/h (1 Bft) 100,00 %
19.10.2015 08:40 6,6 C 97 % 1018,3 hPa 0,0 l/m 0,0 km/h (0 Bft) W-SW 257 0 min 0,000 mm 0,0 UV-I 14 W/m 6,2 C 6,6 C 1,6 km/h (1 Bft) 100,00 %
19.10.2015 08:45 6,6 C 97 % 1018,3 hPa 0,0 l/m 0,4 km/h (0 Bft) W 266 0 min 0,000 mm 0,0 UV-I 13 W/m 6,2 C 6,6 C 1,6 km/h (1 Bft) 100,00 %
19.10.2015 08:50 6,6 C 97 % 1018,4 hPa 0,2 l/m 0,2 km/h (0 Bft) W 266 0 min 0,000 mm 0,0 UV-I 12 W/m 6,2 C 6,6 C 1,6 km/h (1 Bft) 98,17 %
19.10.2015 08:55 6,5 C 97 % 1018,4 hPa 0,0 l/m 0,2 km/h (0 Bft) W 266 0 min 0,000 mm 0,0 UV-I 12 W/m 6,1 C 6,5 C 1,6 km/h (1 Bft) 100,00 %
19.10.2015 09:00 6,6 C 97 % 1018,5 hPa 0,2 l/m 0,1 km/h (0 Bft) W 266 0 min 0,000 mm 0,0 UV-I 13 W/m 6,2 C 6,6 C 1,6 km/h (1 Bft) 99,19 %
19.10.2015 09:05 6,6 C 97 % 1018,5 hPa 0,0 l/m 0,4 km/h (0 Bft) W 266 0 min 0,000 mm 0,0 UV-I 15 W/m 6,2 C 6,6 C 1,6 km/h (1 Bft) 99,13 %
19.10.2015 09:10 6,6 C 97 % 1018,5 hPa 0,0 l/m 1,1 km/h (1 Bft) W-SW 239 0 min 0,000 mm 0,0 UV-I 16 W/m 6,2 C 6,6 C 3,2 km/h (1 Bft) 99,08 %
19.10.2015 09:15 6,6 C 97 % 1018,5 hPa 0,2 l/m 2,1 km/h (1 Bft) W-SW 239 0 min 0,000 mm 0,0 UV-I 18 W/m 6,2 C 6,6 C 4,8 km/h (1 Bft) 100,00 %
19.10.2015 09:20 6,6 C 97 % 1018,5 hPa 0,0 l/m 1,2 km/h (1 Bft) W-SW 246 0 min 0,000 mm 0,0 UV-I 17 W/m 6,2 C 6,6 C 3,2 km/h (1 Bft) 97,32 %
19.10.2015 09:25 6,6 C 97 % 1018,5 hPa 0,2 l/m 1,1 km/h (1 Bft) W-SW 246 0 min 0,000 mm 0,0 UV-I 19 W/m 6,2 C 6,6 C 3,2 km/h (1 Bft) 100,00 %
19.10.2015 09:30 6,7 C 97 % 1018,5 hPa 0,4 l/m 0,7 km/h (0 Bft) W-NW 287 0 min 0,000 mm 0,0 UV-I 30 W/m 6,3 C 6,7 C 3,2 km/h (1 Bft) 100,00 %
19.10.2015 09:35 6,7 C 97 % 1018,6 hPa 0,0 l/m 0,8 km/h (0 Bft) W-NW 286 0 min 0,000 mm 0,0 UV-I 38 W/m 6,3 C 6,7 C 3,2 km/h (1 Bft) 100,00 %
19.10.2015 09:40 6,7 C 97 % 1018,7 hPa 0,4 l/m 1,5 km/h (1 Bft) SW 224 0 min 0,000 mm 0,0 UV-I 38 W/m 6,3 C 6,7 C 3,2 km/h (1 Bft) 98,37 %
19.10.2015 09:45 6,7 C 97 % 1018,7 hPa 0,0 l/m 0,9 km/h (0 Bft) S-SW 213 0 min 0,000 mm 0,0 UV-I 43 W/m 6,3 C 6,7 C 1,6 km/h (1 Bft) 100,00 %
19.10.2015 09:50 6,8 C 97 % 1018,7 hPa 0,2 l/m 1,1 km/h (1 Bft) S-SW 198 0 min 0,000 mm 0,0 UV-I 57 W/m 6,4 C 6,8 C 3,2 km/h (1 Bft) 99,19 %
19.10.2015 09:55 6,8 C 97 % 1018,6 hPa 0,2 l/m 0,8 km/h (0 Bft) S 185 0 min 0,000 mm 0,0 UV-I 64 W/m 6,4 C 6,8 C 3,2 km/h (1 Bft) 99,07 %
19.10.2015 10:00 6,9 C 97 % 1018,6 hPa 0,0 l/m 0,2 km/h (0 Bft) SW 235 0 min 0,025 mm 0,0 UV-I 68 W/m 6,5 C 6,9 C 1,6 km/h (1 Bft) 99,17 %
19.10.2015 10:05 6,9 C 97 % 1018,6 hPa 0,0 l/m 1,2 km/h (1 Bft) W-SW 253 0 min 0,000 mm 0,0 UV-I 72 W/m 6,5 C 6,9 C 3,2 km/h (1 Bft) 100,00 %
19.10.2015 10:10 6,9 C 96 % 1018,7 hPa 0,0 l/m 0,6 km/h (0 Bft) W 264 0 min 0,000 mm 0,0 UV-I 68 W/m 6,3 C 6,9 C 3,2 km/h (1 Bft) 99,21 %
19.10.2015 10:15 6,9 C 96 % 1018,8 hPa 0,2 l/m 1,4 km/h (1 Bft) W-SW 238 0 min 0,000 mm 0,0 UV-I 68 W/m 6,3 C 6,9 C 3,2 km/h (1 Bft) 100,00 %
19.10.2015 10:20 6,9 C 96 % 1018,9 hPa 0,0 l/m 1,7 km/h (1 Bft) W-SW 248 0 min 0,000 mm 0,0 UV-I 54 W/m 6,3 C 6,9 C 3,2 km/h (1 Bft) 98,20 %
19.10.2015 10:25 7,0 C 97 % 1018,9 hPa 0,0 l/m 1,3 km/h (1 Bft) W-SW 249 0 min 0,000 mm 0,0 UV-I 45 W/m 6,6 C 7,0 C 3,2 km/h (1 Bft) 98,39 %
19.10.2015 10:30 7,0 C 96 % 1018,9 hPa 0,0 l/m 1,9 km/h (1 Bft) SW 224 0 min 0,000 mm 0,0 UV-I 48 W/m 6,4 C 7,0 C 4,8 km/h (1 Bft) 100,00 %
19.10.2015 10:35 7,0 C 96 % 1018,8 hPa 0,2 l/m 1,5 km/h (1 Bft) S-SW 200 0 min 0,000 mm 0,0 UV-I 38 W/m 6,4 C 7,0 C 3,2 km/h (1 Bft) 98,33 %
19.10.2015 10:40 7,0 C 95 % 1018,6 hPa 0,0 l/m 1,3 km/h (1 Bft) S-SW 199 0 min 0,000 mm 0,0 UV-I 40 W/m 6,3 C 7,0 C 4,8 km/h (1 Bft) 99,17 %
19.10.2015 10:45 6,9 C 95 % 1018,6 hPa 0,0 l/m 2,4 km/h (1 Bft) S 188 0 min 0,000 mm 0,0 UV-I 44 W/m 6,2 C 6,9 C 6,4 km/h (2 Bft) 100,00 %
19.10.2015 10:50 6,9 C 96 % 1018,5 hPa 0,0 l/m 0,9 km/h (0 Bft) S-SW 211 0 min 0,000 mm 0,0 UV-I 44 W/m 6,3 C 6,9 C 3,2 km/h (1 Bft) 100,00 %
19.10.2015 10:55 6,9 C 95 % 1018,4 hPa 0,2 l/m 2,3 km/h (1 Bft) SW 229 0 min 0,000 mm 0,0 UV-I 51 W/m 6,2 C 6,9 C 4,8 km/h (1 Bft) 100,00 %
19.10.2015 11:00 6,9 C 95 % 1018,4 hPa 0,2 l/m 2,3 km/h (1 Bft) W-SW 242 0 min 0,026 mm 0,0 UV-I 54 W/m 6,2 C 6,9 C 3,2 km/h (1 Bft) 99,19 %
19.10.2015 11:05 6,9 C 96 % 1018,5 hPa 0,0 l/m 1,4 km/h (1 Bft) W-SW 242 0 min 0,000 mm 0,0 UV-I 53 W/m 6,3 C 6,9 C 3,2 km/h (1 Bft) 99,17 %
19.10.2015 11:10 6,9 C 95 % 1018,5 hPa 0,2 l/m 1,2 km/h (1 Bft) S 190 0 min 0,000 mm 0,0 UV-I 49 W/m 6,2 C 6,9 C 3,2 km/h (1 Bft) 100,00 %
19.10.2015 11:15 6,8 C 95 % 1018,5 hPa 0,0 l/m 1,9 km/h (1 Bft) S 186 0 min 0,000 mm 0,0 UV-I 41 W/m 6,1 C 6,8 C 3,2 km/h (1 Bft) 100,00 %
19.10.2015 11:20 6,8 C 95 % 1018,6 hPa 0,2 l/m 2,1 km/h (1 Bft) S 189 0 min 0,000 mm 0,0 UV-I 55 W/m 6,1 C 6,8 C 4,8 km/h (1 Bft) 100,00 %
19.10.2015 11:25 6,8 C 95 % 1018,7 hPa 0,0 l/m 3,7 km/h (1 Bft) S 184 0 min 0,000 mm 0,0 UV-I 52 W/m 6,1 C 6,8 C 6,4 km/h (2 Bft) 100,00 %
19.10.2015 11:30 6,8 C 95 % 1018,7 hPa 0,0 l/m 2,3 km/h (1 Bft) S-SW 192 0 min 0,000 mm 0,0 UV-I 42 W/m 6,1 C 6,8 C 4,8 km/h (1 Bft) 100,00 %
19.10.2015 11:35 6,8 C 96 % 1018,6 hPa 0,0 l/m 1,6 km/h (1 Bft) S 187 0 min 0,000 mm 0,0 UV-I 26 W/m 6,2 C 6,8 C 4,8 km/h (1 Bft) 99,15 %
19.10.2015 11:40 6,7 C 95 % 1018,7 hPa 0,2 l/m 3,0 km/h (1 Bft) S-SW 200 0 min 0,000 mm 0,0 UV-I 24 W/m 6,0 C 6,7 C 6,4 km/h (2 Bft) 96,75 %
19.10.2015 11:45 6,7 C 95 % 1018,7 hPa 0,0 l/m 1,8 km/h (1 Bft) S 191 0 min 0,000 mm 0,0 UV-I 19 W/m 6,0 C 6,7 C 4,8 km/h (1 Bft) 99,11 %
19.10.2015 11:50 6,7 C 95 % 1018,6 hPa 0,0 l/m 0,0 km/h (0 Bft) S 191 0 min 0,000 mm 0,0 UV-I 15 W/m 6,0 C 6,7 C 0,0 km/h (0 Bft) 98,35 %
19.10.2015 11:55 6,7 C 95 % 1018,7 hPa 0,2 l/m 0,5 km/h (0 Bft) S 191 0 min 0,000 mm 0,0 UV-I 24 W/m 6,0 C 6,7 C 3,2 km/h (1 Bft) 99,17 %
19.10.2015 12:00 6,7 C 95 % 1018,8 hPa 0,0 l/m 1,0 km/h (0 Bft) S 169 0 min 0,000 mm 0,0 UV-I 18 W/m 6,0 C 6,7 C 3,2 km/h (1 Bft) 100,00 %
19.10.2015 12:05 6,7 C 95 % 1018,6 hPa 0,0 l/m 0,5 km/h (0 Bft) S-SO 159 0 min 0,025 mm 0,0 UV-I 27 W/m 6,0 C 6,7 C 1,6 km/h (1 Bft) 100,00 %
19.10.2015 12:10 6,7 C 95 % 1018,7 hPa 0,0 l/m 0,2 km/h (0 Bft) S-SO 159 0 min 0,000 mm 0,0 UV-I 26 W/m 6,0 C 6,7 C 1,6 km/h (1 Bft) 100,00 %
19.10.2015 12:15 6,7 C 95 % 1018,7 hPa 0,0 l/m 1,7 km/h (1 Bft) S 175 0 min 0,000 mm 0,0 UV-I 42 W/m 6,0 C 6,7 C 3,2 km/h (1 Bft) 98,21 %
19.10.2015 12:20 6,7 C 95 % 1018,7 hPa 0,0 l/m 2,0 km/h (1 Bft) S-SW 206 0 min 0,000 mm 0,0 UV-I 57 W/m 6,0 C 6,7 C 4,8 km/h (1 Bft) 100,00 %
19.10.2015 12:25 6,7 C 95 % 1018,7 hPa 0,0 l/m 2,5 km/h (1 Bft) S-SO 163 0 min 0,000 mm 0,4 UV-I 76 W/m 6,0 C 6,7 C 4,8 km/h (1 Bft) 100,00 %
19.10.2015 12:30 6,8 C 94 % 1018,6 hPa 0,0 l/m 1,8 km/h (1 Bft) SW 217 0 min 0,000 mm 0,5 UV-I 94 W/m 5,9 C 6,8 C 4,8 km/h (1 Bft) 99,11 %
19.10.2015 12:35 6,7 C 94 % 1018,6 hPa 0,0 l/m 1,3 km/h (1 Bft) S 191 0 min 0,000 mm 0,2 UV-I 80 W/m 5,8 C 6,7 C 3,2 km/h (1 Bft) 96,75 %
19.10.2015 12:40 6,7 C 94 % 1018,6 hPa 0,0 l/m 2,2 km/h (1 Bft) S-SW 197 0 min 0,000 mm 0,0 UV-I 58 W/m 5,8 C 6,7 C 4,8 km/h (1 Bft) 100,00 %
19.10.2015 12:45 6,7 C 95 % 1018,6 hPa 0,0 l/m 2,4 km/h (1 Bft) SW 221 0 min 0,000 mm 0,0 UV-I 61 W/m 6,0 C 6,7 C 4,8 km/h (1 Bft) 100,00 %
19.10.2015 12:50 6,8 C 95 % 1018,7 hPa 0,0 l/m 2,5 km/h (1 Bft) S-SO 150 0 min 0,000 mm 0,0 UV-I 76 W/m 6,1 C 6,8 C 6,4 km/h (2 Bft) 100,00 %
19.10.2015 12:55 6,8 C 95 % 1018,7 hPa 0,0 l/m 2,8 km/h (1 Bft) S-SO 157 0 min 0,000 mm 0,0 UV-I 64 W/m 6,1 C 6,8 C 6,4 km/h (2 Bft) 99,13 %
19.10.2015 13:00 6,8 C 95 % 1018,7 hPa 0,0 l/m 2,4 km/h (1 Bft) S-SW 192 0 min 0,026 mm 0,0 UV-I 66 W/m 6,1 C 6,8 C 6,4 km/h (2 Bft) 99,06 %
19.10.2015 13:05 6,9 C 95 % 1018,7 hPa 0,2 l/m 2,9 km/h (1 Bft) S 188 0 min 0,000 mm 0,3 UV-I 88 W/m 6,2 C 6,9 C 6,4 km/h (2 Bft) 99,19 %
19.10.2015 13:10 6,9 C 95 % 1018,6 hPa 0,0 l/m 2,8 km/h (1 Bft) S-SO 147 0 min 0,000 mm 0,5 UV-I 87 W/m 6,2 C 6,9 C 6,4 km/h (2 Bft) 97,39 %
19.10.2015 13:15 6,9 C 95 % 1018,4 hPa 0,0 l/m 3,3 km/h (1 Bft) S 188 0 min 0,000 mm 0,5 UV-I 94 W/m 6,2 C 6,9 C 6,4 km/h (2 Bft) 100,00 %
19.10.2015 13:20 6,9 C 95 % 1018,4 hPa 0,2 l/m 2,8 km/h (1 Bft) S 185 0 min 0,000 mm 0,7 UV-I 127 W/m 6,2 C 6,9 C 4,8 km/h (1 Bft) 99,08 %
19.10.2015 13:25 7,1 C 96 % 1018,4 hPa 0,0 l/m 2,6 km/h (1 Bft) SW 228 0 min 0,000 mm 0,8 UV-I 166 W/m 6,5 C 7,1 C 6,4 km/h (2 Bft) 99,19 %
19.10.2015 13:30 7,2 C 95 % 1018,4 hPa 0,0 l/m 3,0 km/h (1 Bft) S 189 0 min 0,000 mm 0,9 UV-I 178 W/m 6,5 C 7,2 C 6,4 km/h (2 Bft) 99,15 %
19.10.2015 13:35 7,3 C 95 % 1018,3 hPa 0,0 l/m 2,6 km/h (1 Bft) S 184 0 min 0,000 mm 0,9 UV-I 180 W/m 6,6 C 7,3 C 4,8 km/h (1 Bft) 100,00 %
19.10.2015 13:40 7,5 C 95 % 1018,3 hPa 0,0 l/m 2,0 km/h (1 Bft) W-SW 238 0 min 0,000 mm 0,9 UV-I 159 W/m 6,8 C 7,5 C 4,8 km/h (1 Bft) 100,00 %
19.10.2015 13:45 7,6 C 95 % 1018,3 hPa 0,0 l/m 2,5 km/h (1 Bft) S 180 0 min 0,000 mm 0,8 UV-I 130 W/m 6,9 C 7,6 C 4,8 km/h (1 Bft) 98,17 %
19.10.2015 13:50 7,7 C 95 % 1018,3 hPa 0,0 l/m 1,5 km/h (1 Bft) SW 215 0 min 0,000 mm 0,7 UV-I 117 W/m 7,0 C 7,7 C 3,2 km/h (1 Bft) 100,00 %
19.10.2015 13:55 7,4 C 93 % 1018,3 hPa 0,0 l/m 3,5 km/h (1 Bft) W-SW 241 0 min 0,000 mm 0,6 UV-I 107 W/m 6,3 C 7,4 C 9,7 km/h (2 Bft) 98,37 %
19.10.2015 14:00 7,4 C 94 % 1018,3 hPa 0,0 l/m 3,0 km/h (1 Bft) SW 223 0 min 0,050 mm 0,6 UV-I 116 W/m 6,5 C 7,4 C 4,8 km/h (1 Bft) 99,11 %
19.10.2015 14:05 7,3 C 94 % 1018,3 hPa 0,0 l/m 2,8 km/h (1 Bft) W-SW 245 0 min 0,000 mm 0,6 UV-I 107 W/m 6,4 C 7,3 C 6,4 km/h (2 Bft) 100,00 %
19.10.2015 14:10 7,3 C 94 % 1018,2 hPa 0,0 l/m 2,3 km/h (1 Bft) W 260 0 min 0,000 mm 0,7 UV-I 119 W/m 6,4 C 7,3 C 4,8 km/h (1 Bft) 100,00 %
19.10.2015 14:15 7,4 C 94 % 1018,2 hPa 0,0 l/m 2,4 km/h (1 Bft) S 182 0 min 0,000 mm 0,7 UV-I 144 W/m 6,5 C 7,4 C 4,8 km/h (1 Bft) 100,00 %
19.10.2015 14:20 7,6 C 93 % 1018,1 hPa 0,0 l/m 2,9 km/h (1 Bft) SW 229 0 min 0,000 mm 0,8 UV-I 158 W/m 6,5 C 7,6 C 4,8 km/h (1 Bft) 99,08 %
19.10.2015 14:25 7,7 C 94 % 1018,0 hPa 0,0 l/m 2,2 km/h (1 Bft) S 178 0 min 0,000 mm 0,8 UV-I 167 W/m 6,8 C 7,7 C 4,8 km/h (1 Bft) 98,41 %
19.10.2015 14:30 7,7 C 94 % 1018,0 hPa 0,0 l/m 2,9 km/h (1 Bft) S 183 0 min 0,000 mm 0,9 UV-I 193 W/m 6,8 C 7,7 C 6,4 km/h (2 Bft) 99,11 %
19.10.2015 14:35 7,8 C 93 % 1018,0 hPa 0,0 l/m 3,3 km/h (1 Bft) S 182 0 min 0,000 mm 0,9 UV-I 205 W/m 6,7 C 7,8 C 8,0 km/h (2 Bft) 99,15 %
19.10.2015 14:40 7,8 C 93 % 1017,9 hPa 0,0 l/m 2,9 km/h (1 Bft) S 190 0 min 0,000 mm 0,9 UV-I 224 W/m 6,7 C 7,8 C 4,8 km/h (1 Bft) 99,12 %
19.10.2015 14:45 8,0 C 91 % 1018,0 hPa 0,0 l/m 3,0 km/h (1 Bft) S 187 0 min 0,000 mm 0,8 UV-I 229 W/m 6,6 C 8,0 C 6,4 km/h (2 Bft) 99,17 %
19.10.2015 14:50 8,0 C 90 % 1018,0 hPa 0,0 l/m 1,8 km/h (1 Bft) SW 224 0 min 0,000 mm 0,7 UV-I 197 W/m 6,5 C 8,0 C 3,2 km/h (1 Bft) 100,00 %
19.10.2015 14:55 8,0 C 91 % 1018,0 hPa 0,0 l/m 2,8 km/h (1 Bft) SW 234 0 min 0,000 mm 0,5 UV-I 146 W/m 6,6 C 8,0 C 4,8 km/h (1 Bft) 100,00 %
19.10.2015 15:00 8,1 C 91 % 1018,0 hPa 0,0 l/m 1,9 km/h (1 Bft) W-SW 239 0 min 0,077 mm 0,0 UV-I 113 W/m 6,7 C 8,1 C 4,8 km/h (1 Bft) 99,17 %
19.10.2015 15:05 8,0 C 92 % 1018,0 hPa 0,0 l/m 2,9 km/h (1 Bft) SW 227 0 min 0,000 mm 0,0 UV-I 97 W/m 6,8 C 8,0 C 6,4 km/h (2 Bft) 100,00 %
19.10.2015 15:10 7,9 C 92 % 1018,1 hPa 0,0 l/m 3,2 km/h (1 Bft) W 277 0 min 0,000 mm 0,0 UV-I 87 W/m 6,7 C 7,9 C 6,4 km/h (2 Bft) 98,26 %
19.10.2015 15:15 7,8 C 93 % 1018,1 hPa 0,0 l/m 3,4 km/h (1 Bft) SW 231 0 min 0,000 mm 0,0 UV-I 76 W/m 6,7 C 7,8 C 9,7 km/h (2 Bft) 99,13 %
19.10.2015 15:20 7,7 C 93 % 1018,1 hPa 0,2 l/m 4,8 km/h (1 Bft) S-SW 210 0 min 0,000 mm 0,0 UV-I 72 W/m 6,6 C 7,7 C 9,7 km/h (2 Bft) 98,29 %
19.10.2015 15:25 7,7 C 92 % 1018,1 hPa 0,0 l/m 3,8 km/h (1 Bft) SW 217 0 min 0,000 mm 0,0 UV-I 69 W/m 6,5 C 7,7 C 6,4 km/h (2 Bft) 100,00 %
19.10.2015 15:30 7,6 C 90 % 1018,0 hPa 0,0 l/m 3,6 km/h (1 Bft) W-NW 291 0 min 0,000 mm 0,0 UV-I 65 W/m 6,1 C 7,6 C 6,4 km/h (2 Bft) 98,17 %
19.10.2015 15:35 7,6 C 93 % 1018,0 hPa 0,2 l/m 1,1 km/h (1 Bft) W-SW 243 0 min 0,000 mm 0,0 UV-I 68 W/m 6,5 C 7,6 C 4,8 km/h (1 Bft) 100,00 %
19.10.2015 15:40 7,6 C 92 % 1018,0 hPa 0,0 l/m 2,0 km/h (1 Bft) SW 222 0 min 0,000 mm 0,0 UV-I 71 W/m 6,4 C 7,6 C 3,2 km/h (1 Bft) 100,00 %
19.10.2015 15:45 7,5 C 92 % 1018,1 hPa 0,0 l/m 3,1 km/h (1 Bft) SW 214 0 min 0,000 mm 0,0 UV-I 52 W/m 6,3 C 7,5 C 6,4 km/h (2 Bft) 99,07 %
19.10.2015 15:50 7,4 C 93 % 1018,2 hPa 0,2 l/m 2,6 km/h (1 Bft) W-SW 240 0 min 0,000 mm 0,0 UV-I 35 W/m 6,3 C 7,4 C 4,8 km/h (1 Bft) 98,40 %
19.10.2015 15:55 7,3 C 91 % 1018,1 hPa 1,4 l/m 2,1 km/h (1 Bft) N-NO 31 0 min 0,000 mm 0,0 UV-I 32 W/m 5,9 C 7,3 C 6,4 km/h (2 Bft) 99,08 %
19.10.2015 16:00 7,3 C 89 % 1018,1 hPa 0,2 l/m 2,3 km/h (1 Bft) NW 308 0 min 0,025 mm 0,0 UV-I 34 W/m 5,6 C 7,3 C 6,4 km/h (2 Bft) 100,00 %
19.10.2015 16:05 7,2 C 92 % 1018,2 hPa 0,2 l/m 1,3 km/h (1 Bft) NW 325 0 min 0,000 mm 0,0 UV-I 34 W/m 6,0 C 7,2 C 3,2 km/h (1 Bft) 99,08 %
19.10.2015 16:10 6,9 C 93 % 1018,2 hPa 0,0 l/m 0,3 km/h (0 Bft) NW 325 0 min 0,000 mm 0,0 UV-I 20 W/m 5,8 C 6,9 C 1,6 km/h (1 Bft) 99,21 %
19.10.2015 16:15 6,9 C 93 % 1018,2 hPa 0,2 l/m 0,6 km/h (0 Bft) N 5 0 min 0,000 mm 0,0 UV-I 15 W/m 5,8 C 6,9 C 1,6 km/h (1 Bft) 98,17 %
19.10.2015 16:20 6,8 C 92 % 1018,2 hPa 0,0 l/m 1,6 km/h (1 Bft) W-NW 296 0 min 0,000 mm 0,0 UV-I 12 W/m 5,6 C 6,8 C 4,8 km/h (1 Bft) 97,58 %
19.10.2015 16:25 6,8 C 92 % 1018,2 hPa 0,0 l/m 0,9 km/h (0 Bft) W-NW 301 0 min 0,000 mm 0,0 UV-I 16 W/m 5,6 C 6,8 C 4,8 km/h (1 Bft) 100,00 %
19.10.2015 16:30 6,8 C 92 % 1018,2 hPa 0,0 l/m 0,3 km/h (0 Bft) W 273 0 min 0,000 mm 0,0 UV-I 23 W/m 5,6 C 6,8 C 1,6 km/h (1 Bft) 100,00 %
19.10.2015 16:35 6,9 C 92 % 1018,2 hPa 0,2 l/m 0,6 km/h (0 Bft) W 264 0 min 0,000 mm 0,0 UV-I 24 W/m 5,7 C 6,9 C 3,2 km/h (1 Bft) 100,00 %
19.10.2015 16:40 7,0 C 92 % 1018,2 hPa 0,0 l/m 1,3 km/h (1 Bft) S-SW 204 0 min 0,000 mm 0,0 UV-I 21 W/m 5,8 C 7,0 C 3,2 km/h (1 Bft) 99,21 %
19.10.2015 16:45 6,9 C 93 % 1018,2 hPa 0,0 l/m 1,5 km/h (1 Bft) S-SW 194 0 min 0,000 mm 0,0 UV-I 21 W/m 5,8 C 6,9 C 3,2 km/h (1 Bft) 99,13 %
19.10.2015 16:50 6,9 C 94 % 1018,2 hPa 0,0 l/m 1,1 km/h (1 Bft) S 190 0 min 0,000 mm 0,0 UV-I 21 W/m 6,0 C 6,9 C 3,2 km/h (1 Bft) 99,11 %
19.10.2015 16:55 6,9 C 93 % 1018,2 hPa 0,0 l/m 1,1 km/h (1 Bft) S 190 0 min 0,000 mm 0,0 UV-I 21 W/m 5,8 C 6,9 C 3,2 km/h (1 Bft) 99,15 %
19.10.2015 17:00 6,9 C 93 % 1018,3 hPa 0,0 l/m 0,8 km/h (0 Bft) S 190 0 min 0,000 mm 0,0 UV-I 22 W/m 5,8 C 6,9 C 3,2 km/h (1 Bft) 100,00 %
19.10.2015 17:05 6,9 C 93 % 1018,4 hPa 0,0 l/m 1,7 km/h (1 Bft) S-SW 198 0 min 0,000 mm 0,0 UV-I 24 W/m 5,8 C 6,9 C 3,2 km/h (1 Bft) 99,17 %
19.10.2015 17:10 6,9 C 94 % 1018,4 hPa 0,0 l/m 1,7 km/h (1 Bft) SW 223 0 min 0,000 mm 0,0 UV-I 22 W/m 6,0 C 6,9 C 4,8 km/h (1 Bft) 100,00 %
19.10.2015 17:15 6,9 C 94 % 1018,4 hPa 0,0 l/m 1,4 km/h (1 Bft) S-SW 205 0 min 0,000 mm 0,0 UV-I 21 W/m 6,0 C 6,9 C 3,2 km/h (1 Bft) 100,00 %
19.10.2015 17:20 6,9 C 94 % 1018,4 hPa 0,0 l/m 0,4 km/h (0 Bft) S-SW 205 0 min 0,000 mm 0,0 UV-I 19 W/m 6,0 C 6,9 C 1,6 km/h (1 Bft) 98,20 %
19.10.2015 17:25 6,9 C 94 % 1018,5 hPa 0,0 l/m 0,1 km/h (0 Bft) S-SW 205 0 min 0,000 mm 0,0 UV-I 15 W/m 6,0 C 6,9 C 1,6 km/h (1 Bft) 100,00 %
19.10.2015 17:30 6,9 C 94 % 1018,6 hPa 0,0 l/m 1,3 km/h (1 Bft) SW 215 0 min 0,000 mm 0,0 UV-I 12 W/m 6,0 C 6,9 C 3,2 km/h (1 Bft) 100,00 %
19.10.2015 17:35 7,0 C 95 % 1018,6 hPa 0,0 l/m 0,8 km/h (0 Bft) SW 218 0 min 0,000 mm 0,0 UV-I 11 W/m 6,3 C 7,0 C 3,2 km/h (1 Bft) 100,00 %
19.10.2015 17:40 7,0 C 95 % 1018,6 hPa 0,0 l/m 0,4 km/h (0 Bft) SW 223 0 min 0,000 mm 0,0 UV-I 11 W/m 6,3 C 7,0 C 1,6 km/h (1 Bft) 100,00 %
19.10.2015 17:45 7,1 C 94 % 1018,6 hPa 0,0 l/m 0,8 km/h (0 Bft) SW 224 0 min 0,000 mm 0,0 UV-I 10 W/m 6,2 C 7,1 C 3,2 km/h (1 Bft) 100,00 %
19.10.2015 17:50 7,1 C 94 % 1018,6 hPa 0,0 l/m 0,6 km/h (0 Bft) W 260 0 min 0,000 mm 0,0 UV-I 8 W/m 6,2 C 7,1 C 1,6 km/h (1 Bft) 99,24 %
19.10.2015 17:55 7,1 C 94 % 1018,7 hPa 0,0 l/m 0,7 km/h (0 Bft) W 269 0 min 0,000 mm 0,0 UV-I 6 W/m 6,2 C 7,1 C 3,2 km/h (1 Bft) 100,00 %
19.10.2015 18:00 7,1 C 93 % 1018,7 hPa 0,0 l/m 1,6 km/h (1 Bft) W 272 0 min 0,000 mm 0,0 UV-I 2 W/m 6,0 C 7,1 C 3,2 km/h (1 Bft) 100,00 %
19.10.2015 18:05 7,1 C 94 % 1018,8 hPa 0,0 l/m 1,4 km/h (1 Bft) W 269 0 min 0,000 mm 0,0 UV-I 0 W/m 6,2 C 7,1 C 3,2 km/h (1 Bft) 98,17 %
19.10.2015 18:10 7,0 C 94 % 1018,8 hPa 0,0 l/m 1,5 km/h (1 Bft) SW 217 0 min 0,000 mm 0,0 UV-I 0 W/m 6,1 C 7,0 C 3,2 km/h (1 Bft) 100,00 %
19.10.2015 18:15 6,9 C 94 % 1018,8 hPa 0,0 l/m 2,6 km/h (1 Bft) W 270 0 min 0,000 mm 0,0 UV-I 0 W/m 6,0 C 6,9 C 6,4 km/h (2 Bft) 99,15 %
19.10.2015 18:20 6,9 C 93 % 1018,9 hPa 0,2 l/m 3,2 km/h (1 Bft) W 267 0 min 0,000 mm 0,0 UV-I 0 W/m 5,8 C 6,9 C 6,4 km/h (2 Bft) 99,15 %
19.10.2015 18:25 6,8 C 94 % 1018,9 hPa 0,2 l/m 2,5 km/h (1 Bft) SW 216 0 min 0,000 mm 0,0 UV-I 0 W/m 5,9 C 6,8 C 4,8 km/h (1 Bft) 99,11 %
19.10.2015 18:30 6,7 C 93 % 1019,0 hPa 0,0 l/m 2,6 km/h (1 Bft) W-SW 250 0 min 0,000 mm 0,0 UV-I 0 W/m 5,6 C 6,7 C 4,8 km/h (1 Bft) 99,19 %
19.10.2015 18:35 6,6 C 94 % 1019,0 hPa 0,0 l/m 1,4 km/h (1 Bft) W-SW 241 0 min 0,000 mm 0,0 UV-I 0 W/m 5,7 C 6,6 C 3,2 km/h (1 Bft) 99,11 %
19.10.2015 18:40 6,5 C 94 % 1019,1 hPa 0,0 l/m 1,2 km/h (1 Bft) W-SW 238 0 min 0,000 mm 0,0 UV-I 0 W/m 5,6 C 6,5 C 3,2 km/h (1 Bft) 100,00 %
19.10.2015 18:45 6,4 C 95 % 1019,1 hPa 0,2 l/m 1,0 km/h (0 Bft) W 281 0 min 0,000 mm 0,0 UV-I 0 W/m 5,7 C 6,4 C 3,2 km/h (1 Bft) 99,17 %
19.10.2015 18:50 6,4 C 95 % 1019,2 hPa 0,2 l/m 1,3 km/h (1 Bft) W 275 0 min 0,000 mm 0,0 UV-I 0 W/m 5,7 C 6,4 C 3,2 km/h (1 Bft) 99,11 %
19.10.2015 18:55 6,3 C 95 % 1019,2 hPa 0,0 l/m 1,2 km/h (1 Bft) W 275 0 min 0,000 mm 0,0 UV-I 0 W/m 5,6 C 6,3 C 3,2 km/h (1 Bft) 99,21 %
19.10.2015 19:00 6,3 C 95 % 1019,2 hPa 0,0 l/m 1,5 km/h (1 Bft) W 278 0 min 0,000 mm 0,0 UV-I 0 W/m 5,6 C 6,3 C 3,2 km/h (1 Bft) 100,00 %
19.10.2015 19:05 6,3 C 96 % 1019,2 hPa 0,0 l/m 1,6 km/h (1 Bft) W-NW 286 0 min 0,000 mm 0,0 UV-I 0 W/m 5,7 C 6,3 C 3,2 km/h (1 Bft) 99,11 %
19.10.2015 19:10 6,3 C 96 % 1019,3 hPa 0,0 l/m 1,9 km/h (1 Bft) W-NW 283 0 min 0,000 mm 0,0 UV-I 0 W/m 5,7 C 6,3 C 4,8 km/h (1 Bft) 98,25 %
19.10.2015 19:15 6,3 C 96 % 1019,3 hPa 0,0 l/m 1,7 km/h (1 Bft) W-NW 284 0 min 0,000 mm 0,0 UV-I 0 W/m 5,7 C 6,3 C 3,2 km/h (1 Bft) 99,21 %
19.10.2015 19:20 6,3 C 96 % 1019,4 hPa 0,0 l/m 2,3 km/h (1 Bft) W-NW 284 0 min 0,000 mm 0,0 UV-I 0 W/m 5,7 C 6,3 C 3,2 km/h (1 Bft) 100,00 %
19.10.2015 19:30 6,3 C 96 % 1019,3 hPa 0,4 l/m 1,8 km/h (1 Bft) W-SW 239 0 min 0,000 mm 0,0 UV-I 0 W/m 5,7 C 6,3 C 3,2 km/h (1 Bft) 99,68 %
19.10.2015 19:35 6,3 C 96 % 1019,3 hPa 0,0 l/m 2,9 km/h (1 Bft) W-SW 242 0 min 0,000 mm 0,0 UV-I 0 W/m 5,7 C 6,3 C 6,4 km/h (2 Bft) 100,00 %
19.10.2015 19:40 6,3 C 96 % 1019,3 hPa 0,0 l/m 2,8 km/h (1 Bft) W 271 0 min 0,000 mm 0,0 UV-I 0 W/m 5,7 C 6,3 C 4,8 km/h (1 Bft) 100,00 %
19.10.2015 19:45 6,3 C 97 % 1019,4 hPa 0,0 l/m 3,5 km/h (1 Bft) W-SW 239 0 min 0,000 mm 0,0 UV-I 0 W/m 5,9 C 6,3 C 6,4 km/h (2 Bft) 100,00 %
19.10.2015 19:50 6,3 C 97 % 1019,4 hPa 0,0 l/m 3,0 km/h (1 Bft) W-SW 239 0 min 0,000 mm 0,0 UV-I 0 W/m 5,9 C 6,3 C 6,4 km/h (2 Bft) 98,25 %
19.10.2015 19:55 6,4 C 97 % 1019,4 hPa 0,2 l/m 2,9 km/h (1 Bft) W 261 0 min 0,000 mm 0,0 UV-I 0 W/m 6,0 C 6,4 C 4,8 km/h (1 Bft) 100,00 %
19.10.2015 20:00 6,4 C 97 % 1019,3 hPa 0,2 l/m 3,5 km/h (1 Bft) SW 234 0 min 0,000 mm 0,0 UV-I 0 W/m 6,0 C 6,4 C 6,4 km/h (2 Bft) 100,00 %
19.10.2015 20:05 6,4 C 97 % 1019,3 hPa 0,0 l/m 3,5 km/h (1 Bft) SW 236 0 min 0,000 mm 0,0 UV-I 0 W/m 6,0 C 6,4 C 6,4 km/h (2 Bft) 99,22 %
19.10.2015 20:10 6,4 C 97 % 1019,4 hPa 0,0 l/m 3,9 km/h (1 Bft) W-SW 240 0 min 0,000 mm 0,0 UV-I 0 W/m 6,0 C 6,4 C 6,4 km/h (2 Bft) 100,00 %
19.10.2015 20:15 6,4 C 97 % 1019,4 hPa 0,0 l/m 3,6 km/h (1 Bft) W-SW 242 0 min 0,000 mm 0,0 UV-I 0 W/m 6,0 C 6,4 C 9,7 km/h (2 Bft) 100,00 %
19.10.2015 20:20 6,3 C 97 % 1019,4 hPa 0,0 l/m 4,4 km/h (1 Bft) SW 234 0 min 0,000 mm 0,0 UV-I 0 W/m 5,9 C 6,3 C 9,7 km/h (2 Bft) 100,00 %
19.10.2015 20:25 6,3 C 97 % 1019,4 hPa 0,0 l/m 3,6 km/h (1 Bft) W-SW 249 0 min 0,000 mm 0,0 UV-I 0 W/m 5,9 C 6,3 C 9,7 km/h (2 Bft) 99,11 %
19.10.2015 20:30 6,3 C 97 % 1019,5 hPa 0,0 l/m 3,6 km/h (1 Bft) SW 217 0 min 0,000 mm 0,0 UV-I 0 W/m 5,9 C 6,3 C 6,4 km/h (2 Bft) 99,21 %
19.10.2015 20:35 6,3 C 97 % 1019,5 hPa 0,2 l/m 3,0 km/h (1 Bft) SW 230 0 min 0,000 mm 0,0 UV-I 0 W/m 5,9 C 6,3 C 6,4 km/h (2 Bft) 100,00 %
19.10.2015 20:40 6,3 C 97 % 1019,5 hPa 0,0 l/m 3,0 km/h (1 Bft) W-SW 250 0 min 0,000 mm 0,0 UV-I 0 W/m 5,9 C 6,3 C 6,4 km/h (2 Bft) 98,21 %
19.10.2015 20:45 6,3 C 97 % 1019,5 hPa 0,0 l/m 2,4 km/h (1 Bft) W-SW 248 0 min 0,000 mm 0,0 UV-I 0 W/m 5,9 C 6,3 C 4,8 km/h (1 Bft) 100,00 %
19.10.2015 20:50 6,3 C 96 % 1019,6 hPa 0,0 l/m 2,3 km/h (1 Bft) W-SW 239 0 min 0,000 mm 0,0 UV-I 0 W/m 5,7 C 6,3 C 4,8 km/h (1 Bft) 98,43 %
19.10.2015 20:55 6,4 C 96 % 1019,7 hPa 0,0 l/m 2,4 km/h (1 Bft) SW 236 0 min 0,000 mm 0,0 UV-I 0 W/m 5,8 C 6,4 C 4,8 km/h (1 Bft) 99,11 %
19.10.2015 21:00 6,4 C 96 % 1019,7 hPa 0,2 l/m 2,6 km/h (1 Bft) W 269 0 min 0,000 mm 0,0 UV-I 0 W/m 5,8 C 6,4 C 4,8 km/h (1 Bft) 99,19 %
19.10.2015 21:05 6,4 C 96 % 1019,7 hPa 0,0 l/m 3,1 km/h (1 Bft) W 277 0 min 0,000 mm 0,0 UV-I 0 W/m 5,8 C 6,4 C 4,8 km/h (1 Bft) 100,00 %
19.10.2015 21:10 6,4 C 96 % 1019,8 hPa 0,0 l/m 2,6 km/h (1 Bft) W-SW 246 0 min 0,000 mm 0,0 UV-I 0 W/m 5,8 C 6,4 C 6,4 km/h (2 Bft) 100,00 %
19.10.2015 21:15 6,4 C 97 % 1019,8 hPa 0,2 l/m 2,5 km/h (1 Bft) S-SW 203 0 min 0,000 mm 0,0 UV-I 0 W/m 6,0 C 6,4 C 4,8 km/h (1 Bft) 98,39 %
19.10.2015 21:20 6,4 C 97 % 1019,8 hPa 0,0 l/m 2,6 km/h (1 Bft) W 265 0 min 0,000 mm 0,0 UV-I 0 W/m 6,0 C 6,4 C 6,4 km/h (2 Bft) 99,08 %
19.10.2015 21:25 6,4 C 97 % 1019,8 hPa 0,2 l/m 2,0 km/h (1 Bft) SW 234 0 min 0,000 mm 0,0 UV-I 0 W/m 6,0 C 6,4 C 4,8 km/h (1 Bft) 100,00 %
19.10.2015 21:30 6,4 C 97 % 1019,9 hPa 0,2 l/m 2,3 km/h (1 Bft) SW 236 0 min 0,000 mm 0,0 UV-I 0 W/m 6,0 C 6,4 C 6,4 km/h (2 Bft) 99,13 %
19.10.2015 21:35 6,4 C 97 % 1019,9 hPa 0,2 l/m 1,9 km/h (1 Bft) W-SW 242 0 min 0,000 mm 0,0 UV-I 0 W/m 6,0 C 6,4 C 4,8 km/h (1 Bft) 98,37 %
19.10.2015 21:40 6,4 C 97 % 1019,9 hPa 0,0 l/m 2,0 km/h (1 Bft) SW 221 0 min 0,000 mm 0,0 UV-I 0 W/m 6,0 C 6,4 C 4,8 km/h (1 Bft) 99,11 %
19.10.2015 21:45 6,4 C 97 % 1019,9 hPa 0,8 l/m 3,1 km/h (1 Bft) SW 227 0 min 0,000 mm 0,0 UV-I 0 W/m 6,0 C 6,4 C 6,4 km/h (2 Bft) 99,15 %
19.10.2015 21:50 6,4 C 97 % 1019,8 hPa 0,0 l/m 2,9 km/h (1 Bft) S 184 0 min 0,000 mm 0,0 UV-I 0 W/m 6,0 C 6,4 C 6,4 km/h (2 Bft) 99,17 %
19.10.2015 21:55 6,4 C 97 % 1019,8 hPa 0,4 l/m 2,7 km/h (1 Bft) NW 313 0 min 0,000 mm 0,0 UV-I 0 W/m 6,0 C 6,4 C 8,0 km/h (2 Bft) 99,11 %
19.10.2015 22:00 6,4 C 97 % 1019,8 hPa 0,8 l/m 4,3 km/h (1 Bft) S-SW 210 0 min 0,000 mm 0,0 UV-I 0 W/m 6,0 C 6,4 C 8,0 km/h (2 Bft) 98,26 %
19.10.2015 22:05 6,4 C 97 % 1019,8 hPa 0,0 l/m 4,6 km/h (1 Bft) S-SW 211 0 min 0,000 mm 0,0 UV-I 0 W/m 6,0 C 6,4 C 8,0 km/h (2 Bft) 99,19 %
19.10.2015 22:10 6,4 C 96 % 1019,9 hPa 0,2 l/m 5,0 km/h (1 Bft) W-SW 246 0 min 0,000 mm 0,0 UV-I 0 W/m 5,8 C 6,4 C 8,0 km/h (2 Bft) 99,08 %
19.10.2015 22:15 6,4 C 96 % 1019,9 hPa 0,2 l/m 4,2 km/h (1 Bft) SW 215 0 min 0,000 mm 0,0 UV-I 0 W/m 5,8 C 6,4 C 8,0 km/h (2 Bft) 100,00 %
19.10.2015 22:20 6,4 C 97 % 1019,9 hPa 0,0 l/m 2,1 km/h (1 Bft) SW 225 0 min 0,000 mm 0,0 UV-I 0 W/m 6,0 C 6,4 C 4,8 km/h (1 Bft) 99,10 %
19.10.2015 22:25 6,4 C 96 % 1019,9 hPa 0,2 l/m 3,0 km/h (1 Bft) SW 218 0 min 0,000 mm 0,0 UV-I 0 W/m 5,8 C 6,4 C 6,4 km/h (2 Bft) 98,31 %
19.10.2015 22:30 6,4 C 96 % 1019,8 hPa 0,0 l/m 3,9 km/h (1 Bft) SW 230 0 min 0,000 mm 0,0 UV-I 0 W/m 5,8 C 6,4 C 6,4 km/h (2 Bft) 99,19 %
19.10.2015 22:35 6,4 C 96 % 1019,8 hPa 0,0 l/m 2,4 km/h (1 Bft) S-SW 209 0 min 0,000 mm 0,0 UV-I 0 W/m 5,8 C 6,4 C 4,8 km/h (1 Bft) 98,31 %
19.10.2015 22:40 6,3 C 97 % 1019,8 hPa 0,2 l/m 3,7 km/h (1 Bft) SW 224 0 min 0,000 mm 0,0 UV-I 0 W/m 5,9 C 6,3 C 8,0 km/h (2 Bft) 99,11 %
19.10.2015 22:45 6,3 C 97 % 1019,8 hPa 0,0 l/m 3,8 km/h (1 Bft) SW 230 0 min 0,000 mm 0,0 UV-I 0 W/m 5,9 C 6,3 C 6,4 km/h (2 Bft) 98,29 %
19.10.2015 22:50 6,3 C 97 % 1019,8 hPa 0,0 l/m 3,6 km/h (1 Bft) W-SW 252 0 min 0,000 mm 0,0 UV-I 0 W/m 5,9 C 6,3 C 8,0 km/h (2 Bft) 97,46 %
19.10.2015 22:55 6,3 C 97 % 1019,8 hPa 0,2 l/m 3,9 km/h (1 Bft) S-SW 209 0 min 0,000 mm 0,0 UV-I 0 W/m 5,9 C 6,3 C 6,4 km/h (2 Bft) 99,11 %
19.10.2015 23:00 6,4 C 97 % 1019,8 hPa 0,0 l/m 3,7 km/h (1 Bft) SW 231 0 min 0,000 mm 0,0 UV-I 0 W/m 6,0 C 6,4 C 6,4 km/h (2 Bft) 99,21 %
19.10.2015 23:05 6,3 C 97 % 1019,8 hPa 0,0 l/m 4,1 km/h (1 Bft) S-SW 202 0 min 0,000 mm 0,0 UV-I 0 W/m 5,9 C 6,3 C 8,0 km/h (2 Bft) 100,00 %
19.10.2015 23:10 6,3 C 97 % 1019,8 hPa 0,0 l/m 3,7 km/h (1 Bft) W-SW 248 0 min 0,000 mm 0,0 UV-I 0 W/m 5,9 C 6,3 C 6,4 km/h (2 Bft) 99,13 %
19.10.2015 23:15 6,4 C 97 % 1019,8 hPa 0,0 l/m 3,0 km/h (1 Bft) W-SW 256 0 min 0,000 mm 0,0 UV-I 0 W/m 6,0 C 6,4 C 6,4 km/h (2 Bft) 100,00 %
19.10.2015 23:20 6,4 C 97 % 1019,8 hPa 0,2 l/m 2,7 km/h (1 Bft) S-SW 202 0 min 0,000 mm 0,0 UV-I 0 W/m 6,0 C 6,4 C 4,8 km/h (1 Bft) 99,13 %
19.10.2015 23:25 6,3 C 97 % 1019,9 hPa 0,0 l/m 3,6 km/h (1 Bft) SW 229 0 min 0,000 mm 0,0 UV-I 0 W/m 5,9 C 6,3 C 6,4 km/h (2 Bft) 97,50 %
19.10.2015 23:30 6,3 C 97 % 1019,9 hPa 0,0 l/m 3,8 km/h (1 Bft) SW 219 0 min 0,000 mm 0,0 UV-I 0 W/m 5,9 C 6,3 C 8,0 km/h (2 Bft) 99,09 %
19.10.2015 23:35 6,3 C 97 % 1019,8 hPa 0,0 l/m 3,6 km/h (1 Bft) S-SW 206 0 min 0,000 mm 0,0 UV-I 0 W/m 5,9 C 6,3 C 6,4 km/h (2 Bft) 99,17 %
19.10.2015 23:40 6,3 C 97 % 1019,8 hPa 0,2 l/m 3,2 km/h (1 Bft) SW 228 0 min 0,000 mm 0,0 UV-I 0 W/m 5,9 C 6,3 C 6,4 km/h (2 Bft) 98,25 %
19.10.2015 23:45 6,3 C 97 % 1019,8 hPa 0,2 l/m 3,5 km/h (1 Bft) W-SW 237 0 min 0,000 mm 0,0 UV-I 0 W/m 5,9 C 6,3 C 6,4 km/h (2 Bft) 100,00 %
19.10.2015 23:50 6,3 C 97 % 1019,8 hPa 0,0 l/m 2,8 km/h (1 Bft) W-SW 247 0 min 0,000 mm 0,0 UV-I 0 W/m 5,9 C 6,3 C 4,8 km/h (1 Bft) 100,00 %
19.10.2015 23:55 6,3 C 97 % 1019,7 hPa 0,2 l/m 2,1 km/h (1 Bft) W-SW 237 0 min 0,000 mm 0,0 UV-I 0 W/m 5,9 C 6,3 C 4,8 km/h (1 Bft) 97,50 %
_ Min-Zeit 01:40 16:00 05:15 - 00:00 - - - - - - 01:40 01:40 00:00 03:25
Minimum _ 5,7 C 89 % 1017,2 hPa - 0,0 km/h (0 Bft) - - - - - - 5,3 C 5,7 C 0,0 km/h (0 Bft) 96,30 %
_ Max-Zeit 14:50 02:45 21:30 15:55 22:10 - - 00:00 15:00 13:30 14:45 13:50 15:00 13:55 00:10
Maximum _ 8,1 C 98 % 1019,9 hPa 1,4 l/m 5,0 km/h
W-SW (1 Bft)
- - 0 min 0,077 mm 0,9 UV-I 229 W/m 7,0 C 8,1 C 9,7 km/h
W (2 Bft)
100,00 %
Durchschnitt _ 6,6 C 96 % 1018,4 hPa #14,4 l/m 1,4 km/h (1 Bft) SW - #0 min. #0,254 mm 0,7 UV-I 59 W/m 6,0 C 6,6 C 3,4 km/h (1 Bft) 99,34 %